Regional Weather Roundup
Issued by NWS

Home | Current Version | Previous Version | Graphics & Text | Print | Product List | Glossary On
Versions: 1 2 3 4 5 6 7 8 9 10 11 12 13 14 15 16 17 18 19 20 21 22 23 24 25 26 27 28 29 30 31 32 33 34 35 36 37 38 39 40 41 42 43 44 45 46 47 48 49 50
000
ASUS43 KFSD 250810
RWRSD

WEATHER ROUNDUP FOR SOUTH DAKOTA
NATIONAL WEATHER SERVICE SIOUX FALLS SD
300 AM CDT MON JUL 25 2016

NOTE: "FAIR" INDICATES FEW OR NO CLOUDS BELOW 12,000 FEET WITH NO
SIGNIFICANT WEATHER AND/OR OBSTRUCTIONS TO VISIBILITY.


SDZ001>005-009-010-012>017-250900-
NORTHWEST AND NORTH CENTRAL SOUTH DAKOTA

CITY           SKY/WX    TMP DP  RH WIND       PRES   REMARKS
BUFFALO          N/A     68  50  52 SE9       29.98S
FAITH            N/A     63  46  54 S15       30.06F
MOBRIDGE       CLEAR     69  58  67 S9        30.03S
$$

SDZ012>016-024>037-041>051-057-063-072>074-250900-
SOUTHWEST AND SOUTH CENTRAL SOUTH DAKOTA

CITY           SKY/WX    TMP DP  RH WIND       PRES   REMARKS
RAPID CTY ARPT CLEAR     68  51  54 S8        30.10F
PIERRE         CLEAR     67  53  61 SE8       30.05F
CUSTER         CLEAR     61  50  67 W3        30.26F
ELLSWORTH AFB  CLEAR     70  52  51 S13       30.09S
PHILIP         CLEAR     65  54  67 CALM      30.07F
PINE RIDGE     CLEAR     68  57  68 SW7       30.14S
WINNER         FAIR      72  53  51 S7        30.10F
$$

SDZ004>011-016>023-039-040-250900-
NORTHEAST SOUTH DAKOTA

CITY           SKY/WX    TMP DP  RH WIND       PRES   REMARKS
ABERDEEN       CLEAR     60  56  86 SW5       30.05S
WATERTOWN      CLEAR     62  58  86 S5        30.08S
BROOKINGS      CLEAR     64  60  87 CALM      30.09
SISSETON         N/A     62  58  86 W5        30.02F
$$

SDZ017-020-022-023-036>040-048>070-250900-
SOUTHEAST SOUTH DAKOTA

CITY           SKY/WX    TMP DP  RH WIND       PRES   REMARKS
SIOUX FALLS    CLEAR     64  58  80 CALM      30.08S
HURON          CLEAR     66  56  70 S6        30.06S
CHAMBERLAIN    CLEAR     63  58  84 CALM      30.08F
MITCHELL       CLEAR     65  61  87 SW3       30.08F
YANKTON        CLEAR     63  57  82 NW5       30.07S
$$

ABBREVIATIONS USED IN REMARKS
   TC - TEMPERATURE IN CELSIUS
  WCI - WIND CHILL INDEX
   HX - HEAT INDEX
  VSB - VISIBILITY




USA.gov is the U.S. government's official web portal to all federal, state and local government web resources and services.